Location: Esp�s Alto
(42.4476°N, 0.5876°E)
Time: 03:28:22
(UTC+00:00)

Cosmos 2369 Rocket - Pass Details

Date: 22 October 2019
Orbit: 830 x 851 km, 71.0° (Epoch: 20 November)

Event Time Altitude Azimuth Distance (km) Brightness Sun altitude
Rises 04:23:00 0° 344° (NNW) 3,385 5.2 -21.9°
Reaches altitude 10° 04:25:55 10° 358° (N) 2,446 4.6 -21.4°
Maximum altitude 04:30:27 25° 52° (NE) 1,638 4.3 -20.6°
Drops below altitude 10° 04:34:57 10° 107° (ESE) 2,435 5.6 -19.7°
Sets 04:37:49 0° 120° (ESE) 3,366 6.3 -19.2°
